Scappoose, OR

7:31 AM PDT on May 27, 2017 (GMT -0700)
Scappoose Industrial

Weather History for KSPB - June, 2013

Change the Weather History Date:

Friday, June 21, 2013

  Actual Average Record
Temperature  
Mean Temperature 60 °F -  
Max Temperature 68 °F - 89 °F (2004)
Min Temperature 53 °F - 45 °F (2003)
Degree Days  
Heating Degree Days 4    
Month to date heating degree days 94  
Since 1 June heating degree days 94  
Since 1 July heating degree days 4711  
Cooling Degree Days 0    
Month to date cooling degree days 11  
Year to date cooling degree days 19  
Since 1 June cooling degree days 11  
Growing Degree Days 10 (Base 50)    
Moisture  
Dew Point 51 °F    
Average Humidity 71    
Maximum Humidity 86    
Minimum Humidity 56    
Precipitation  
Precipitation T in - 0.11 in (2005)
Month to date precipitation 0.93  
Year to date precipitation 13.25  
Sea Level Pressure  
Sea Level Pressure 30.15 in    
Wind  
Wind Speed 2 mph (NNW)    
Max Wind Speed 9 mph    
Max Gust Speed 14 mph    
Visibility 10 miles    
Events      
T = Trace of Precipitation, MM = Missing Value Source: NWS Daily Summary

Daily Weather History Graph

Daily Weather History Graph

Search for Another Location

Airport or City:

Trip Planner

Search our weather history database for the weather conditions in past years. The results will help you decide how hot, cold, wet, or windy it might be!

Date:

Astronomy

Jun. 21, 2013 Rise Set
Actual Time 5:21 AM PDT 9:05 PM PDT
Civil Twilight 4:43 AM PDT 9:43 PM PDT
Nautical Twilight 3:51 AM PDT 10:34 PM PDT
Astronomical Twilight 2:40 AM PDT 11:45 PM PDT
Moon 7:18 PM PDT (6/21) 3:46 AM PDT (6/21)
Length of Visible Light 17h 00m
Length of Day
15h 43m
Waxing Gibbous, 96% of the Moon is Illuminated
Jun 21
Waxing Gibbous
Jun 23
Full
Jun 29
Last Quarter
Jul 8
New
Jul 15
First Quarter

Hourly Weather History & Observations

Time (PDT) Temp. Dew Point Humidity Pressure Visibility Wind Dir Wind Speed Gust Speed Precip Events Conditions
12:53 AM 55.9 °F 46.9 °F 72% 30.14 in 10.0 mi Calm Calm - N/A   Overcast
1:53 AM 55.0 °F 48.0 °F 77% 30.14 in 10.0 mi Calm Calm - N/A   Overcast
2:53 AM 54.0 °F 48.9 °F 83% 30.14 in 10.0 mi Calm Calm - N/A   Overcast
3:53 AM 54.0 °F 48.9 °F 83% 30.14 in 10.0 mi Calm Calm - 0.00 in   Overcast
4:53 AM 53.1 °F 48.9 °F 86% 30.15 in 10.0 mi WSW 3.5 mph - N/A   Overcast
5:53 AM 54.0 °F 48.9 °F 83% 30.15 in 10.0 mi Calm Calm - N/A   Overcast
6:53 AM 55.9 °F 48.9 °F 77% 30.16 in 10.0 mi Calm Calm - N/A   Overcast
7:53 AM 57.0 °F 51.1 °F 81% 30.17 in 10.0 mi Calm Calm - N/A   Overcast
8:53 AM 59.0 °F 50.0 °F 72% 30.17 in 10.0 mi Calm Calm - N/A   Overcast
9:51 AM 60.8 °F 50.0 °F 68% 30.17 in 10.0 mi Calm Calm - N/A   Overcast
9:53 AM 60.1 °F 50.0 °F 69% 30.17 in 10.0 mi Variable 4.6 mph - N/A   Overcast
10:05 AM 60.8 °F 48.2 °F 63% 30.17 in 10.0 mi Calm Calm - N/A   Overcast
10:53 AM 62.1 °F 52.0 °F 70% 30.17 in 10.0 mi East 5.8 mph - N/A   Overcast
11:36 AM 62.6 °F 51.8 °F 68% 30.17 in 10.0 mi Calm Calm - N/A   Overcast
11:53 AM 64.0 °F 51.1 °F 63% 30.17 in 10.0 mi Calm Calm - N/A   Overcast
12:06 PM 64.4 °F 51.8 °F 64% 30.16 in 10.0 mi Variable 3.5 mph - N/A   Mostly Cloudy
12:13 PM 64.4 °F 53.6 °F 68% 30.16 in 10.0 mi East 4.6 mph - N/A   Mostly Cloudy
12:23 PM 66.2 °F 51.8 °F 60% 30.16 in 10.0 mi Calm Calm - N/A   Mostly Cloudy
12:53 PM 64.9 °F 50.0 °F 58% 30.16 in 10.0 mi Variable 3.5 mph - N/A   Overcast
1:53 PM 66.9 °F 52.0 °F 59% 30.15 in 10.0 mi Calm Calm - N/A   Mostly Cloudy
2:53 PM 66.0 °F 50.0 °F 56% 30.15 in 10.0 mi Calm Calm - N/A   Overcast
3:53 PM 66.9 °F 51.1 °F 57% 30.14 in 10.0 mi Calm Calm - N/A   Overcast
4:53 PM 66.9 °F 51.1 °F 57% 30.13 in 10.0 mi North 3.5 mph - N/A   Overcast
5:53 PM 66.0 °F 51.1 °F 59% 30.13 in 10.0 mi NW 5.8 mph - N/A   Overcast
6:53 PM 66.0 °F 51.1 °F 59% 30.13 in 10.0 mi NW 4.6 mph - N/A   Overcast
7:53 PM 66.0 °F 52.0 °F 60% 30.13 in 10.0 mi NNW 5.8 mph - N/A   Overcast
8:53 PM 63.0 °F 52.0 °F 67% 30.13 in 10.0 mi NW 4.6 mph - N/A   Overcast
9:53 PM 60.1 °F 52.0 °F 75% 30.14 in 10.0 mi North 3.5 mph - N/A   Partly Cloudy
10:53 PM 55.0 °F 51.1 °F 86% 30.13 in 10.0 mi Calm Calm - N/A   Clear
11:53 PM 55.9 °F 51.1 °F 84% 30.13 in 10.0 mi WNW 3.5 mph - N/A   Clear